Location: Pegasus Observatory
(35.6569°N, 82.5850°W)
Time: 01:03:26
(UTC-05:00)

N. Korean satellite - Visible Passes

Search period start: 22 January 2020 00:00
Search period end: 01 February 2020 00:00
Orbit: 454 x 507 km, 97.2° (Epoch: 21 January)

Date Brightness Start Highest point End Pass type
(mag) Time Alt. Az. Time Alt. Az. Time Alt. Az.
22 Jan 10.1 05:15:43 10° ENE 05:17:00 12° E 05:18:17 10° ESE visible
22 Jan 7.2 06:47:15 10° N 06:50:27 32° WNW 06:53:42 10° SW visible
23 Jan 6.4 06:21:29 10° N 06:25:03 78° WNW 06:28:39 10° SSW visible
23 Jan 9.8 18:28:40 10° SW 18:30:47 16° W 18:32:55 10° NW visible
24 Jan 7.8 05:56:08 10° NNE 05:59:33 43° E 06:03:01 10° S visible
25 Jan 9.4 05:31:19 10° NE 05:33:59 20° E 05:36:40 10° SE visible
25 Jan 7.9 07:04:34 10° NNW 07:07:14 20° WNW 07:09:56 10° WSW visible
26 Jan 6.9 06:38:27 10° N 06:41:53 43° WNW 06:45:20 10° SSW visible
27 Jan 6.7 06:12:49 10° NNE 06:16:26 79° ESE 06:20:05 10° S visible
27 Jan 9.6 18:19:30 10° SW 18:22:05 20° W 18:24:41 10° NW visible
28 Jan 8.4 05:47:37 10° NNE 05:50:55 33° E 05:54:15 10° SSE visible
29 Jan 9.7 05:23:05 10° NE 05:25:19 16° E 05:27:34 10° SE visible
29 Jan 7.6 06:55:38 10° NNW 06:58:40 26° WNW 07:01:43 10° SW visible
30 Jan 6.6 06:29:42 10° N 06:33:17 57° WNW 06:36:53 10° SSW visible
30 Jan 10.1 18:37:41 10° WSW 18:39:01 12° W 18:40:22 10° WNW visible
31 Jan 7.2 06:04:12 10° NNE 06:07:48 59° E 06:11:26 10° S visible
